OK1ALX-6 Weather Reports


time (UTC)temp
F
wind
direction
speed
knots
gust
knots
rain 1hr
in
rain 24hr
in
rain mn
in
humidity
%
barometer
mb
20260507185003 57 308 3.5 7.8 0.00 0.00 0.00 70 1019.1
20260507184003 57 319 3.5 7.0 0.00 0.00 0.00 70 1018.9
20260507183003 57 312 3.5 7.8 0.00 0.00 0.00 70 1019.1
20260507182003 58 313 4.3 9.6 0.00 0.00 0.00 69 1018.8
20260507181003 58 307 4.3 11.3 0.00 0.00 0.00 69 1018.4
20260507180003 59 325 4.3 8.7 0.00 0.00 0.00 68 1018.2
20260507175003 59 333 4.3 8.7 0.00 0.00 0.00 67 1018.2
20260507174003 59 331 5.2 9.6 0.00 0.00 0.00 67 1018.0
20260507173003 61 307 6.1 12.2 0.00 0.00 0.00 63 1017.9
20260507172003 62 311 6.1 12.2 0.00 0.00 0.00 59 1017.5
20260507171003 63 312 6.1 13.9 0.00 0.00 0.00 57 1017.3
20260507170003 63 312 6.1 12.2 0.00 0.01 0.00 56 1017.2
20260507165003 63 307 6.1 11.3 0.00 0.01 0.00 56 1017.3
20260507164003 64 289 6.1 11.3 0.00 0.01 0.00 53 1017.0
20260507163003 64 302 6.1 11.3 0.00 0.01 0.00 53 1016.7
20260507162003 64 297 5.2 8.7 0.00 0.01 0.00 53 1016.8
20260507161003 64 281 2.6 6.1 0.00 0.01 0.00 52 1016.8
20260507160003 64 269 4.3 7.8 0.00 0.01 0.00 52 1016.9
20260507155003 65 283 5.2 9.6 0.00 0.01 0.00 51 1016.7
20260507154003 64 298 6.1 13.0 0.00 0.01 0.00 50 1016.9
20260507153003 64 300 5.2 8.7 0.00 0.01 0.00 51 1016.8
20260507152003 65 295 4.3 9.6 0.00 0.01 0.00 49 1016.7
20260507151011 65 295 5.2 9.6 0.00 0.01 0.00 50 1016.7
20260507150003 64 281 6.1 9.6 0.00 0.01 0.00 50 1016.4
20260507145003 63 296 6.1 13.0 0.00 0.01 0.00 52 1016.7
20260507144003 63 295 7.0 13.0 0.00 0.01 0.00 51 1016.8
20260507143003 63 313 7.0 12.2 0.00 0.01 0.00 53 1016.7
20260507142003 64 303 7.8 12.2 0.00 0.01 0.00 53 1016.7
20260507141003 64 306 7.0 12.2 0.00 0.03 0.00 54 1016.8
20260507140003 63 284 6.1 11.3 0.00 0.06 0.00 56 1017.0
20260507135003 63 300 7.0 13.0 0.00 0.06 0.00 56 1017.0
20260507134003 63 306 7.0 13.0 0.00 0.06 0.00 58 1016.9
20260507133003 63 303 6.1 11.3 0.00 0.06 0.00 57 1016.8
20260507132003 63 304 6.1 9.6 0.00 0.06 0.00 58 1017.1
20260507131003 63 292 7.8 13.0 0.00 0.06 0.00 57 1016.9
20260507130004 64 292 7.0 11.3 0.00 0.06 0.00 57 1016.9
20260507125003 65 288 6.1 11.3 0.00 0.06 0.00 56 1016.6
20260507124003 62 294 5.2 12.2 0.00 0.06 0.00 57 1016.9
20260507123003 63 297 5.2 9.6 0.00 0.06 0.00 57 1016.5
20260507122004 63 258 4.3 7.0 0.00 0.06 0.00 55 1016.6
20260507121003 63 284 4.3 7.8 0.00 0.06 0.00 56 1016.6
20260507120004 64 298 6.1 12.2 0.00 0.06 0.00 56 1016.4
20260507115003 63 287 4.3 7.8 0.00 0.06 0.00 56 1016.4
20260507114003 64 256 4.3 11.3 0.00 0.06 0.00 57 1016.7
20260507113003 64 276 5.2 8.7 0.00 0.06 0.00 56 1016.3
20260507112003 62 284 5.2 11.3 0.00 0.06 0.00 56 1016.9
20260507111003 63 285 6.1 12.2 0.00 0.06 0.00 56 1016.6
20260507110003 62 244 5.2 8.7 0.00 0.06 0.00 58 1016.7
20260507105003 62 266 5.2 11.3 0.00 0.06 0.00 58 1016.6
20260507103003 62 270 6.1 13.0 0.00 0.06 0.00 58 1016.7
20260507102003 61 208 5.2 8.7 0.00 0.06 0.00 61 1016.7
20260507101003 61 246 4.3 8.7 0.00 0.06 0.00 61 1016.5
20260507100003 61 275 4.3 7.8 0.00 0.06 0.00 63 1016.5
20260507095003 60 248 5.2 9.6 0.00 0.06 0.00 65 1016.5
20260507094003 60 263 5.2 8.7 0.00 0.06 0.00 65 1016.5
20260507093003 60 244 4.3 8.7 0.00 0.06 0.00 66 1016.6
20260507092003 59 250 6.1 9.6 0.00 0.06 0.00 65 1016.5
20260507091003 60 247 6.1 11.3 0.00 0.06 0.00 69 1016.4
20260507090004 59 267 5.2 9.6 0.00 0.06 0.00 68 1016.2
20260507085003 60 241 5.2 8.7 0.00 0.06 0.00 68 1016.0
20260507084003 60 273 5.2 8.7 0.00 0.06 0.00 67 1016.0
20260507083003 61 254 6.1 12.2 0.00 0.06 0.00 66 1016.0
20260507082003 60 279 4.3 13.0 0.00 0.06 0.00 68 1015.7
20260507081003 59 279 7.0 13.0 0.00 0.06 0.00 69 1016.0
20260507080003 60 225 7.0 11.3 0.00 0.06 0.00 68 1015.8
20260507075003 59 258 7.8 12.2 0.00 0.06 0.00 69 1016.0
20260507074003 58 244 5.2 8.7 0.00 0.06 0.00 70 1015.9
20260507073004 58 269 5.2 9.6 0.00 0.06 0.00 71 1015.9
20260507072003 58 239 5.2 11.3 0.00 0.06 0.00 73 1015.7
20260507071003 58 250 6.1 12.2 0.00 0.06 0.00 72 1015.7
20260507070006 58 256 5.2 12.2 0.00 0.06 0.00 74 1015.8
20260507065003 57 261 5.2 11.3 0.00 0.06 0.00 76 1015.9
20260507064003 56 251 3.5 7.0 0.00 0.06 0.00 78 1015.9
20260507063003 57 260 4.3 7.0 0.00 0.06 0.00 77 1015.8
20260507062003 57 190 0.9 5.2 0.00 0.06 0.00 78 1015.7
20260507061003 56 219 0.9 2.6 0.00 0.06 0.00 79 1015.7
20260507060003 56 228 1.7 3.5 0.00 0.06 0.00 80 1015.5
20260507055003 55 252 1.7 3.5 0.00 0.06 0.00 81 1015.4
20260507054003 55 175 0.9 2.6 0.00 0.06 0.00 82 1015.2
20260507053003 55 252 0.9 3.5 0.00 0.06 0.00 83 1015.2
20260507052003 54 228 1.7 6.1 0.00 0.06 0.00 84 1015.3
20260507051003 54 217 0.9 2.6 0.00 0.06 0.00 86 1014.9
20260507050003 53 180 0.9 2.6 0.00 0.06 0.00 87 1015.0
20260507045003 53 196 0.9 2.6 0.00 0.06 0.00 87 1014.9
20260507044003 53 218 0.9 2.6 0.00 0.06 0.00 88 1014.8
20260507043003 53 219 0.9 3.5 0.00 0.06 0.00 87 1014.8
20260507042003 53 208 0.9 3.5 0.00 0.06 0.00 87 1014.6
20260507041006 53 161 1.7 3.5 0.00 0.06 0.00 88 1014.6
20260507040003 53 216 0.9 1.7 0.00 0.06 0.00 89 1014.2
20260507035011 53 220 0.9 1.7 0.00 0.06 0.00 88 1014.2
20260507034003 54 223 0.0 1.7 0.00 0.06 0.00 88 1014.4
20260507033003 54 238 1.7 2.6 0.00 0.06 0.00 87 1014.1
20260507032003 54 263 2.6 7.8 0.00 0.06 0.00 87 1014.1
20260507031003 55 229 4.3 7.8 0.00 0.06 0.00 86 1013.8
20260507030003 55 232 3.5 7.0 0.00 0.06 0.00 86 1013.7
20260507025003 55 208 3.5 7.0 0.00 0.06 0.00 85 1013.3
20260507024003 55 194 1.7 6.1 0.00 0.06 0.00 85 1013.5
20260507023003 55 186 0.9 5.2 0.00 0.06 0.00 85 1013.5
20260507022003 55 195 1.7 3.5 0.00 0.06 0.00 85 1013.4
20260507021003 53 196 0.9 3.5 0.00 0.06 0.00 87 1013.7
20260507020003 53 147 0.9 2.6 0.00 0.06 0.00 86 1013.6
20260507015003 54 150 0.9 1.7 0.00 0.06 0.00 85 1013.2
20260507014003 54 179 0.9 2.6 0.00 0.06 0.00 86 1013.5
20260507013003 53 188 1.7 5.2 0.00 0.06 0.00 88 1013.5
20260507012003 53 198 1.7 3.5 0.00 0.06 0.00 88 1013.5
20260507011003 53 205 1.7 5.2 0.00 0.06 0.00 88 1013.1
20260507010003 53 199 1.7 5.2 0.00 0.06 0.00 87 1013.0
20260507005003 53 192 1.7 2.6 0.00 0.06 0.00 88 1013.0
20260507004003 54 203 1.7 5.2 0.00 0.06 0.00 88 1012.8
20260507003003 54 217 1.7 5.2 0.00 0.06 0.00 88 1012.9
20260507002003 54 221 1.7 5.2 0.00 0.06 0.00 89 1012.9
20260507001003 54 226 1.7 2.6 0.00 0.06 0.00 89 1012.6
20260507000003 54 228 1.7 3.5 0.00 0.06 0.00 89 1012.7
20260506235003 54 170 1.7 2.6 0.00 0.06 0.00 89 1012.6
20260506234003 54 236 1.7 2.6 0.00 0.06 0.00 89 1012.4
20260506233003 54 259 0.9 2.6 0.00 0.06 0.00 89 1012.4
20260506232003 54 285 1.7 3.5 0.00 0.06 0.00 89 1012.2
20260506231003 55 289 4.3 7.8 0.00 0.06 0.00 88 1012.1
20260506230003 55 291 3.5 8.7 0.00 0.06 0.00 87 1012.0
20260506225003 55 52 3.5 7.8 0.00 0.06 0.00 87 1011.2
20260506224003 55 33 2.6 6.1 0.00 0.06 0.00 87 1010.9
20260506223003 55 319 2.6 7.0 0.00 0.06 0.00 86 1011.4
20260506222003 56 335 3.5 7.0 0.00 0.06 0.00 83 1011.9
20260506221003 56 334 4.3 9.6 0.00 0.06 0.00 81 1012.0
20260506220011 57 305 6.1 14.8 0.00 0.06 0.00 81 1012.0
20260506215004 57 304 7.0 12.2 0.00 0.06 0.06 81 1012.1
20260506214003 57 300 5.2 9.6 0.00 0.06 0.06 82 1012.1
20260506213003 57 292 7.0 13.9 0.00 0.06 0.06 84 1012.2
20260506212003 56 287 6.1 13.9 0.00 0.06 0.06 88 1012.6
20260506211003 55 311 3.5 7.8 0.00 0.06 0.06 87 1011.5
20260506210004 55 319 2.6 6.1 0.00 0.06 0.06 87 1010.9
20260506205003 56 318 1.7 2.6 0.00 0.06 0.06 85 1010.7
20260506204003 56 331 1.7 3.5 0.00 0.06 0.06 83 1010.4
20260506203003 56 69 0.0 1.7 0.00 0.06 0.06 83 1010.5
20260506202003 56 86 0.0 2.6 0.00 0.06 0.06 82 1010.0
20260506201003 56 78 0.0 1.7 0.00 0.06 0.06 82 1010.0
20260506200003 57 79 1.7 3.5 0.00 0.06 0.06 82 1010.0
20260506195003 56 82 0.9 1.7 0.00 0.06 0.06 84 1010.1
20260506194003 57 136 0.0 1.7 0.00 0.06 0.06 83 1010.0
20260506193003 57 114 0.9 1.7 0.00 0.06 0.06 83 1010.0
20260506192003 57 90 0.0 0.9 0.00 0.06 0.06 83 1009.9
20260506191003 57 83 0.0 1.7 0.00 0.06 0.06 83 1009.8
20260506190003 57 81 0.9 2.6 0.00 0.06 0.06 83 1010.0